[[{"header":{"parameterUnit":"m.s-1","parameterCategory":1,"la1":30.2991,"la2":30.254,"lo1":-89.0895,"lo2":-89.0444,"dy":0.0017,"dx":0.0017,"nx":28,"ny":28,"refTime":"2024-08-10T21:00:00:Z","depth":0,"parameterNumber":2,"parameterNumberName":"U-component_of_WINDS"},"data":[0,0,0,0,0,0,0,0,0,0,0,0,0,0,0,0,0,0,0,0,0,0,0,0,0,0,0,0,0,0,0,0,0,0,0,0,0,0,0,0,0,0,0,0,0,0,0,0,0,0,0,0,0,0,0,0,0,0,-2.1325,-2.1325,0,-2.1356,-2.1357,-2.1357,-2.1257,-2.1254,-2.1251,-2.1248,-2.1282,-2.1285,-2.1289,0,0,0,0,0,0,0,0,0,0,0,0,0,-2.1178,-2.1181,-2.1325,-2.1325,-2.1326,-2.1356,-2.1357,-2.1357,-2.1258,-2.1254,-2.125,-2.1247,-2.1281,-2.1285,-2.1289,0,0,0,0,0,0,0,0,0,0,0,0,0,-2.1229,-2.1182,-2.1325,-2.1279,-2.1276,-2.1356,-2.1357,-2.1357,-2.1258,-2.1254,-2.1249,-2.1245,-2.1279,-2.1285,-2.129,-2.1416,0,0,-2.1307,-2.131,0,0,0,0,0,0,0,0,-2.1226,-2.1234,-2.1286,-2.1283,-2.1279,-2.1298,-2.1317,-2.1377,-2.1259,-2.1265,-2.1248,-2.1243,-2.1291,-2.1295,-2.1311,-2.1418,-2.1419,-2.1308,-2.1311,-2.1314,-2.1315,0,0,0,0,0,0,0,-2.1223,-2.1232,-2.1337,-2.1287,-2.1282,-2.1257,-2.126,-2.1328,-2.1303,-2.1264,-2.1257,-2.1262,-2.1288,-2.1306,-2.1311,-2.142,-2.1308,-2.1313,-2.1316,-2.1318,-2.1631,-2.1636,0,0,0,0,0,0,-2.1225,-2.123,-2.1336,-2.1338,-2.124,-2.1264,-2.1266,-2.1296,-2.1302,-2.1299,-2.1266,-2.1257,-2.1299,-2.1305,-2.1312,-2.1461,-2.1313,-2.1319,-2.1322,-2.1626,-2.1632,-2.1637,0,0,0,0,0,0,-2.1222,-2.1235,-2.1335,-2.1282,-2.1293,-2.1271,-2.1306,-2.13,-2.1317,-2.1304,-2.1299,-2.1289,-2.1295,-2.1304,-2.1391,-2.1461,-2.1321,-2.1326,-2.162,-2.1628,-2.1635,-2.1759,0,0,0,0,0,0,-2.1218,-2.1235,-2.1283,-2.1284,-2.1296,-2.1414,-2.131,-2.1303,-2.1327,-2.1316,-2.1324,-2.1321,-2.1293,-2.1383,-2.1397,-2.1466,-2.1331,-2.1614,-2.1624,-2.1632,-2.1749,-2.177,-2.1788,0,0,0,0,0,-2.1213,-2.1317,-2.1286,-2.1299,-2.1356,-2.1418,-2.1425,-2.139,-2.1333,-2.1381,-2.1372,-2.1321,-2.145,-2.1393,-2.1407,-2.1479,-2.1609,-2.1621,-2.1632,-2.174,-2.1766,-2.1787,0,0,0,0,0,0,-2.1325,-2.1316,-2.1282,-2.1389,-2.1405,-2.1401,-2.1461,-2.1418,-2.1451,-2.144,-2.1395,-2.1398,-2.1493,-2.1494,-2.143,-2.1601,-2.152,-2.1535,-2.1597,-2.1622,-2.1641,-2.164,-2.1335,0,0,0,0,0,-2.1362,-2.1414,-2.1403,-2.1498,-2.1508,-2.1483,-2.1509,-2.148,-2.1495,-2.1502,-2.1499,-2.1516,-2.156,-2.159,-2.163,-2.1747,-2.1748,-2.1803,-2.1823,-2.1839,-2.1853,-2.1915,-2.194,-2.1674,-2.1674,-2.1673,0,0,-2.144,-2.1441,-2.1476,-2.1521,-2.153,-2.1584,-2.149,-2.1551,-2.1591,-2.1511,-2.1593,-2.1592,-2.1607,-2.171,-2.1754,-2.1714,-2.1926,-2.1853,-2.1866,-2.1871,-2.1929,-2.1954,-2.1977,-2.1681,-2.168,-2.1679,0,0,-2.1609,-2.1615,-2.1695,-2.1706,-2.172,-2.1703,-2.1722,-2.1724,-2.172,-2.1801,-2.1742,-2.1789,-2.1866,-2.188,-2.1897,-2.2069,-2.2023,-2.2083,-2.2186,-2.2247,-2.2268,-2.2287,-2.2349,-2.2372,-2.2096,-2.2096,-2.2097,0,-2.1704,-2.1783,-2.1742,-2.1807,-2.1828,-2.1757,-2.1838,-2.1851,-2.1878,-2.1895,-2.1848,-2.1943,-2.1948,-2.2053,-2.2095,-2.2111,-2.2132,-2.2083,-2.2268,-2.2286,-2.2303,-2.2362,-2.2386,-2.2104,-2.2103,-2.2102,-2.2102,0,-2.1899,-2.1955,-2.2018,-2.2045,-2.2073,-2.2146,-2.2116,-2.2149,-2.2118,-2.2105,-2.2188,-2.2192,-2.2232,-2.2253,-2.2224,-2.2354,-2.2328,-2.2276,-2.2194,-2.2336,-2.2391,-2.2413,-2.2114,-2.2112,-2.2109,-2.2108,0,0,-2.2143,-2.2145,-2.2169,-2.218,-2.219,-2.2233,-2.2302,-2.234,-2.237,-2.239,-2.2447,-2.2513,-2.2464,-2.2484,-2.2454,-2.2508,-2.2645,-2.2448,-2.2448,-2.2486,-2.2789,-2.2831,-2.2857,-2.2613,-2.2617,-2.262,-2.2788,0,-2.231,-2.2429,-2.2393,-2.2513,-2.2564,-2.2496,-2.2556,-2.2569,-2.2558,-2.26,-2.2587,-2.2636,-2.2567,-2.2578,-2.2628,-2.2618,-2.2705,-2.2605,-2.2667,-2.267,-2.2668,-2.2886,-2.293,-2.3088,-2.281,-2.2813,-2.2816,0,-2.2522,-2.255,-2.2676,-2.2676,-2.2696,-2.2751,-2.2783,-2.2823,-2.2836,-2.2824,-2.2845,-2.2804,-2.2872,-2.2787,-2.288,-2.2813,-2.2835,-2.2834,-2.284,-2.2846,-2.2753,-2.29,-2.3138,-2.3163,-2.2849,-2.2846,-2.2844,0,-2.2689,-2.2758,-2.2842,-2.2853,-2.2856,-2.2896,-2.2899,-2.2907,-2.2932,-2.2959,-2.2975,-2.301,-2.3029,-2.3057,-2.3027,-2.2968,-2.3124,-2.3038,-2.3118,-2.3119,-2.3156,-2.3154,-2.3403,-2.3167,-2.3167,-2.3167,-2.3166,0,-2.2881,-2.2961,-2.2917,-2.2969,-2.3055,-2.3012,-2.3099,-2.3094,-2.3102,-2.3151,-2.3094,-2.3141,-2.3097,-2.3141,-2.3117,-2.3198,-2.3207,-2.32,-2.3193,-2.3206,-2.3208,-2.3222,-2.3211,-2.3173,-2.3171,-2.317,-2.3169,0,-2.3084,-2.3057,-2.3144,-2.3139,-2.3139,-2.3204,-2.3199,-2.3246,-2.323,-2.3294,-2.3306,-2.3282,-2.333,-2.3301,-2.3351,-2.3334,-2.344,-2.3417,-2.3437,-2.3431,-2.3513,-2.3507,-2.3782,-2.3816,-2.3557,-2.356,-2.3562,0,-2.3209,-2.3269,-2.3269,-2.3298,-2.3305,-2.3352,-2.3377,-2.3336,-2.3364,-2.3382,-2.3428,-2.347,-2.3503,-2.3583,-2.357,-2.3607,-2.3586,-2.3679,-2.3591,-2.3603,-2.3589,-2.3587,-2.3593,-2.3698,-2.3701,-2.3704,-2.3706,0,-2.3436,-2.3419,-2.3457,-2.3491,-2.3521,-2.3546,-2.3565,-2.3592,-2.3551,-2.3586,-2.3634,-2.3659,-2.3708,-2.3752,-2.3783,-2.3786,-2.374,-2.3733,-2.3754,-2.3769,-2.3779,-2.3776,-2.3487,-2.3728,-2.3726,-2.3724,-2.3723,-2.3722,-2.3605,-2.3654,-2.3662,-2.3706,-2.3716,-2.3735,-2.378,-2.3769,-2.3808,-2.3846,-2.3818,-2.3876,-2.3885,-2.3922,-2.3931,-2.3975,-2.3937,-2.3967,-2.3975,-2.3983,-2.3995,-2.377,-2.398,-2.3979,-2.3979,-2.3978,-2.3978,0,-2.3829,-2.383,-2.3871,-2.39,-2.3934,-2.3886,-2.3905,-2.3937,-2.3988,-2.4001,-2.4033,-2.4089,-2.413,-2.4119,-2.4157,-2.4194,-2.4174,-2.4205,-2.4203,-2.4205,-2.4026,-2.4006,-2.4221,-2.4221,-2.4221,-2.4221,-2.4221,-2.4221,-2.395,-2.4032,-2.4016,-2.4102,-2.4102,-2.4158,-2.4173,-2.419,-2.42,-2.4264,-2.4298,-2.429,-2.4294,-2.433,-2.4366,-2.4362,-2.4379,-2.4419,-2.4407,-2.4241,-2.4217,-2.4195,-2.4175,-2.4422,-2.4423,-2.4582,-2.4583,-2.4584]},{"header":{"parameterUnit":"m.s-1","parameterCategory":1,"la1":30.2991,"la2":30.254,"lo1":-89.0895,"lo2":-89.0444,"dy":0.0017,"dx":0.0017,"nx":28,"ny":28,"refTime":"2024-08-10T21:00:00:Z","depth":0,"parameterNumber":3,"parameterNumberName":"V-component_of_WINDS"},"data":[0,0,0,0,0,0,0,0,0,0,0,0,0,0,0,0,0,0,0,0,0,0,0,0,0,0,0,0,0,0,0,0,0,0,0,0,0,0,0,0,0,0,0,0,0,0,0,0,0,0,0,0,0,0,0,0,0,0,-3.5075,-3.5076,0,-3.5121,-3.5122,-3.5122,-3.5081,-3.5079,-3.5078,-3.5076,-3.5119,-3.5122,-3.5124,0,0,0,0,0,0,0,0,0,0,0,0,0,-3.4946,-3.4949,-3.5075,-3.5076,-3.5076,-3.5121,-3.5122,-3.5122,-3.5081,-3.5079,-3.5077,-3.5075,-3.5118,-3.5121,-3.5125,0,0,0,0,0,0,0,0,0,0,0,0,0,-3.4998,-3.495,-3.5075,-3.5061,-3.506,-3.5121,-3.5122,-3.5122,-3.5082,-3.5079,-3.5077,-3.5074,-3.5117,-3.5121,-3.5125,-3.52,0,0,-3.5137,-3.5139,0,0,0,0,0,0,0,0,-3.4995,-3.5003,-3.5063,-3.5062,-3.5062,-3.5093,-3.5092,-3.5148,-3.5082,-3.5074,-3.5076,-3.5073,-3.5112,-3.5116,-3.513,-3.5202,-3.5204,-3.5138,-3.514,-3.5142,-3.5143,0,0,0,0,0,0,0,-3.4992,-3.5001,-3.5093,-3.5064,-3.5063,-3.5051,-3.5056,-3.5103,-3.5106,-3.5074,-3.5071,-3.5078,-3.5111,-3.5127,-3.5131,-3.5205,-3.5138,-3.5141,-3.5144,-3.5145,-3.5338,-3.5341,0,0,0,0,0,0,-3.499,-3.4998,-3.5092,-3.5094,-3.5022,-3.5056,-3.5061,-3.5085,-3.5106,-3.5106,-3.508,-3.5076,-3.5121,-3.5126,-3.5132,-3.522,-3.5142,-3.5146,-3.5148,-3.5336,-3.5339,-3.5342,0,0,0,0,0,0,-3.4988,-3.4999,-3.509,-3.5046,-3.5056,-3.506,-3.5088,-3.5088,-3.5103,-3.511,-3.511,-3.5095,-3.5119,-3.5127,-3.5184,-3.5221,-3.5148,-3.5151,-3.5332,-3.5337,-3.534,-3.5398,0,0,0,0,0,0,-3.4984,-3.4998,-3.5028,-3.5047,-3.5059,-3.5142,-3.5091,-3.509,-3.511,-3.5105,-3.5124,-3.5125,-3.5118,-3.5178,-3.5188,-3.5226,-3.5154,-3.5329,-3.5334,-3.5339,-3.5392,-3.5403,-3.5412,0,0,0,0,0,-3.498,-3.5042,-3.503,-3.5041,-3.5096,-3.5144,-3.5151,-3.5143,-3.5114,-3.5143,-3.5147,-3.5124,-3.5216,-3.5184,-3.5195,-3.5234,-3.5326,-3.5333,-3.5339,-3.5388,-3.5401,-3.5412,0,0,0,0,0,0,-3.5026,-3.5044,-3.5031,-3.5101,-3.5122,-3.5137,-3.5173,-3.5157,-3.5185,-3.5179,-3.5166,-3.5171,-3.5231,-3.5238,-3.5202,-3.5307,-3.5266,-3.5275,-3.53,-3.5313,-3.5322,-3.5319,-3.5158,0,0,0,0,0,-3.5045,-3.5084,-3.5097,-3.5157,-3.5168,-3.5169,-3.519,-3.5182,-3.5202,-3.521,-3.5218,-3.5237,-3.527,-3.5292,-3.5323,-3.5394,-3.5396,-3.5426,-3.5436,-3.5444,-3.5451,-3.5488,-3.5501,-3.5362,-3.5362,-3.5361,0,0,-3.5083,-3.5098,-3.5123,-3.5167,-3.5182,-3.522,-3.5177,-3.522,-3.5248,-3.5216,-3.527,-3.5277,-3.5297,-3.5361,-3.5389,-3.5369,-3.5491,-3.5452,-3.5459,-3.5461,-3.5496,-3.5509,-3.552,-3.5366,-3.5365,-3.5364,0,0,-3.5173,-3.5189,-3.524,-3.5256,-3.528,-3.528,-3.5293,-3.5311,-3.5314,-3.5369,-3.5345,-3.5378,-3.5435,-3.545,-3.5465,-3.556,-3.554,-3.5571,-3.5622,-3.5658,-3.5669,-3.5679,-3.5711,-3.5723,-3.5578,-3.5578,-3.5578,0,-3.5217,-3.5276,-3.5269,-3.5314,-3.5333,-3.5307,-3.5358,-3.5373,-3.5405,-3.5418,-3.5395,-3.5466,-3.5478,-3.5545,-3.5568,-3.5582,-3.5594,-3.5568,-3.5669,-3.5678,-3.5687,-3.5718,-3.573,-3.5581,-3.5581,-3.5581,-3.558,0,-3.5329,-3.537,-3.5409,-3.5442,-3.5465,-3.5513,-3.5511,-3.5535,-3.5525,-3.5527,-3.5582,-3.5596,-3.5628,-3.5644,-3.5634,-3.5708,-3.5695,-3.5671,-3.5629,-3.5704,-3.5732,-3.5744,-3.5587,-3.5585,-3.5584,-3.5583,0,0,-3.5449,-3.5477,-3.5491,-3.5505,-3.5529,-3.556,-3.5605,-3.5639,-3.5659,-3.5682,-3.5719,-3.5768,-3.5746,-3.5763,-3.5754,-3.5786,-3.5859,-3.5758,-3.5758,-3.5775,-3.594,-3.5957,-3.5971,-3.5846,-3.5848,-3.585,-3.5938,0,-3.5538,-3.562,-3.5614,-3.569,-3.5727,-3.5703,-3.5742,-3.576,-3.5763,-3.5794,-3.5796,-3.5831,-3.58,-3.581,-3.584,-3.5844,-3.5891,-3.5837,-3.5878,-3.588,-3.5873,-3.5986,-3.6005,-3.6087,-3.5949,-3.5951,-3.5952,0,-3.5654,-3.5682,-3.5762,-3.5779,-3.5795,-3.5831,-3.586,-3.589,-3.5909,-3.5909,-3.5929,-3.5915,-3.5959,-3.5917,-3.5977,-3.5941,-3.5957,-3.5961,-3.5964,-3.5966,-3.592,-3.599,-3.6113,-3.6125,-3.597,-3.5969,-3.5967,0,-3.5731,-3.5789,-3.5844,-3.5857,-3.5879,-3.5905,-3.5915,-3.5932,-3.5952,-3.5977,-3.5989,-3.6019,-3.6035,-3.6057,-3.6051,-3.6022,-3.6112,-3.607,-3.6112,-3.6112,-3.6131,-3.6129,-3.6256,-3.6144,-3.6143,-3.6143,-3.6143,0,-3.5831,-3.5881,-3.5879,-3.5913,-3.5967,-3.5959,-3.6012,-3.6019,-3.6034,-3.6068,-3.6048,-3.608,-3.607,-3.6101,-3.6096,-3.6146,-3.6153,-3.6153,-3.6151,-3.6154,-3.6154,-3.6163,-3.6157,-3.6147,-3.6146,-3.6145,-3.6145,0,-3.5927,-3.5928,-3.5986,-3.6003,-3.6008,-3.6047,-3.606,-3.6091,-3.6093,-3.6135,-3.6144,-3.6146,-3.6181,-3.6178,-3.6216,-3.6213,-3.6274,-3.6266,-3.6268,-3.6266,-3.6307,-3.6302,-3.6443,-3.6461,-3.6338,-3.6339,-3.634,0,-3.599,-3.6027,-3.6048,-3.607,-3.6082,-3.6117,-3.6138,-3.6131,-3.6153,-3.6177,-3.6205,-3.6238,-3.6264,-3.6321,-3.6324,-3.6354,-3.6345,-3.6392,-3.6349,-3.6351,-3.6344,-3.6341,-3.6344,-3.64,-3.6402,-3.6403,-3.6404,0,-3.6101,-3.61,-3.6131,-3.6162,-3.6188,-3.6212,-3.6233,-3.6252,-3.6247,-3.6272,-3.6308,-3.6328,-3.6368,-3.6401,-3.6428,-3.6437,-3.6419,-3.6418,-3.6429,-3.6431,-3.6431,-3.643,-3.629,-3.6414,-3.6413,-3.6412,-3.6412,-3.6411,-3.6181,-3.6213,-3.6233,-3.6268,-3.6284,-3.6304,-3.6334,-3.634,-3.637,-3.6403,-3.6397,-3.6437,-3.6454,-3.6489,-3.65,-3.653,-3.6513,-3.6529,-3.6533,-3.6537,-3.6541,-3.6427,-3.6536,-3.6535,-3.6535,-3.6535,-3.6535,0,-3.629,-3.6302,-3.6334,-3.6366,-3.6393,-3.6376,-3.6399,-3.6422,-3.6458,-3.6476,-3.6503,-3.6543,-3.6575,-3.6581,-3.6611,-3.6633,-3.6626,-3.6641,-3.6639,-3.6641,-3.6555,-3.6542,-3.6647,-3.6647,-3.6647,-3.6647,-3.6647,-3.6647,-3.635,-3.6403,-3.6404,-3.6464,-3.6474,-3.6515,-3.6529,-3.6547,-3.6562,-3.6608,-3.6635,-3.6639,-3.6652,-3.6683,-3.671,-3.6711,-3.6722,-3.6741,-3.6738,-3.6658,-3.6647,-3.6636,-3.6624,-3.6744,-3.6744,-3.6821,-3.6822,-3.6822]}]]